| time (UTC) | temp C | wind direction | speed KPH | gust KPH | rain 1hr cm | rain 24hr cm | rain mn cm | humidity % | barometer mb |
| 20260504081556 | 12 | 163 | 3.2 | 9.7 | 0.00 | 0.08 | 0.00 | 74 | 1015.3 |
| 20260504081057 | 12 | 171 | 3.2 | 9.7 | 0.00 | 0.08 | 0.00 | 73 | 1015.3 |
| 20260504080557 | 12 | 175 | 1.6 | 9.7 | 0.00 | 0.08 | 0.00 | 73 | 1015.2 |
| 20260504060106 | 13 | 146 | 3.2 | 8.0 | 0.00 | 0.08 | 0.00 | 69 | 1016.6 |
| 20260504050556 | 13 | 141 | 3.2 | 6.4 | 0.03 | 0.08 | 0.00 | 69 | 1016.6 |
| 20260504050120 | 13 | 140 | 1.6 | 6.4 | 0.03 | 0.08 | 0.00 | 69 | 1016.6 |
| 20260504045558 | 13 | 185 | 3.2 | 6.4 | 0.03 | 0.08 | 0.08 | 69 | 1016.5 |
| 20260504045058 | 13 | 171 | 1.6 | 6.4 | 0.03 | 0.08 | 0.08 | 69 | 1016.6 |
| 20260504044557 | 13 | 171 | 1.6 | 6.4 | 0.03 | 0.08 | 0.08 | 69 | 1016.6 |
| 20260504044100 | 13 | 161 | 3.2 | 6.4 | 0.03 | 0.08 | 0.08 | 69 | 1016.6 |
| 20260504043602 | 13 | 148 | 1.6 | 6.4 | 0.00 | 0.05 | 0.05 | 69 | 1016.7 |
| 20260504043105 | 13 | 167 | 3.2 | 6.4 | 0.00 | 0.05 | 0.05 | 68 | 1016.7 |
| 20260504042559 | 13 | 161 | 1.6 | 9.7 | 0.00 | 0.05 | 0.05 | 68 | 1016.8 |
| 20260504042100 | 13 | 179 | 3.2 | 9.7 | 0.00 | 0.05 | 0.05 | 68 | 1016.9 |
| 20260504041600 | 13 | 180 | 3.2 | 8.0 | 0.00 | 0.05 | 0.05 | 68 | 1016.9 |
| 20260504041102 | 13 | 181 | 1.6 | 8.0 | 0.00 | 0.05 | 0.05 | 69 | 1016.9 |
| 20260504040559 | 13 | 169 | 1.6 | 8.0 | 0.00 | 0.05 | 0.05 | 69 | 1017.0 |
| 20260504040106 | 13 | 196 | 1.6 | 8.0 | 0.00 | 0.05 | 0.05 | 69 | 1017.1 |
| 20260504035558 | 13 | 162 | 1.6 | 8.0 | 0.00 | 0.05 | 0.05 | 69 | 1017.1 |
| 20260504035059 | 13 | 160 | 1.6 | 6.4 | 0.00 | 0.05 | 0.05 | 69 | 1017.2 |
| 20260504034614 | 13 | 187 | 1.6 | 6.4 | 0.00 | 0.05 | 0.05 | 70 | 1017.1 |
| 20260504034058 | 13 | 169 | 1.6 | 6.4 | 0.00 | 0.05 | 0.05 | 70 | 1017.1 |
| 20260504033558 | 13 | 169 | 0.0 | 3.2 | 0.00 | 0.05 | 0.05 | 70 | 1017.2 |
| 20260504033102 | 13 | 0 | 0.0 | 0.0 | 0.00 | 0.05 | 0.05 | 71 | 1017.2 |
| 20260504032559 | 13 | 0 | 0.0 | 0.0 | 0.00 | 0.05 | 0.05 | 71 | 1017.1 |
| 20260504032101 | 13 | 0 | 0.0 | 0.0 | 0.00 | 0.05 | 0.05 | 71 | 1017.2 |
| 20260504031611 | 13 | 0 | 0.0 | 0.0 | 0.00 | 0.05 | 0.05 | 71 | 1017.2 |
| 20260504031058 | 12 | 0 | 0.0 | 0.0 | 0.00 | 0.05 | 0.05 | 71 | 1017.3 |
| 20260504030601 | 12 | 0 | 0.0 | 0.0 | 0.00 | 0.05 | 0.05 | 72 | 1017.2 |
| 20260504030113 | 12 | 0 | 0.0 | 0.0 | 0.00 | 0.05 | 0.05 | 73 | 1017.3 |
| 20260504025558 | 13 | 0 | 0.0 | 0.0 | 0.00 | 0.05 | 0.05 | 74 | 1017.2 |
| 20260504025058 | 13 | 0 | 0.0 | 0.0 | 0.00 | 0.05 | 0.05 | 73 | 1017.3 |
| 20260504024558 | 13 | 0 | 0.0 | 0.0 | 0.00 | 0.05 | 0.05 | 75 | 1017.2 |
| 20260504024059 | 13 | 0 | 0.0 | 0.0 | 0.00 | 0.05 | 0.05 | 74 | 1017.1 |
| 20260504023559 | 13 | 0 | 0.0 | 0.0 | 0.00 | 0.05 | 0.05 | 73 | 1017.2 |
| 20260504023059 | 13 | 0 | 0.0 | 0.0 | 0.00 | 0.05 | 0.05 | 70 | 1017.2 |
| 20260504022559 | 13 | 0 | 0.0 | 0.0 | 0.00 | 0.05 | 0.05 | 70 | 1017.3 |
| 20260504022059 | 13 | 0 | 0.0 | 0.0 | 0.00 | 0.05 | 0.05 | 71 | 1017.1 |
| 20260504021606 | 13 | 0 | 0.0 | 0.0 | 0.00 | 0.05 | 0.05 | 69 | 1017.0 |
| 20260504021058 | 13 | 0 | 0.0 | 0.0 | 0.00 | 0.05 | 0.05 | 70 | 1017.0 |
| 20260504020559 | 13 | 0 | 0.0 | 0.0 | 0.00 | 0.05 | 0.05 | 70 | 1017.0 |
| 20260504020058 | 13 | 0 | 0.0 | 0.0 | 0.00 | 0.05 | 0.05 | 69 | 1017.1 |
| 20260504015558 | 13 | 0 | 0.0 | 0.0 | 0.00 | 0.05 | 0.05 | 69 | 1017.1 |
| 20260504015059 | 14 | 0 | 0.0 | 0.0 | 0.00 | 0.05 | 0.05 | 68 | 1017.1 |
| 20260504014556 | 14 | 0 | 0.0 | 0.0 | 0.00 | 0.05 | 0.05 | 71 | 1017.0 |
| 20260504014101 | 14 | 0 | 0.0 | 0.0 | 0.00 | 0.05 | 0.05 | 71 | 1017.1 |
| 20260504013558 | 15 | 0 | 0.0 | 0.0 | 0.00 | 0.05 | 0.05 | 70 | 1016.8 |
| 20260504013055 | 15 | 0 | 0.0 | 0.0 | 0.00 | 0.05 | 0.05 | 68 | 1016.7 |
| 20260504012604 | 15 | 0 | 0.0 | 0.0 | 0.00 | 0.05 | 0.05 | 65 | 1016.7 |
| 20260504012101 | 15 | 0 | 0.0 | 0.0 | 0.00 | 0.05 | 0.05 | 66 | 1016.6 |
| 20260504011559 | 15 | 0 | 0.0 | 0.0 | 0.00 | 0.05 | 0.05 | 64 | 1016.5 |
| 20260504011058 | 16 | 0 | 0.0 | 0.0 | 0.00 | 0.05 | 0.05 | 65 | 1016.5 |
| 20260504010558 | 16 | 0 | 0.0 | 1.6 | 0.00 | 0.05 | 0.05 | 61 | 1016.4 |
| 20260504010059 | 16 | 0 | 0.0 | 1.6 | 0.00 | 0.05 | 0.05 | 61 | 1016.3 |
| 20260504005559 | 16 | 169 | 0.0 | 3.2 | 0.00 | 0.05 | 0.05 | 59 | 1016.3 |
| 20260504005059 | 16 | 0 | 0.0 | 3.2 | 0.00 | 0.05 | 0.05 | 59 | 1016.3 |
| 20260504004557 | 17 | 169 | 1.6 | 3.2 | 0.00 | 0.05 | 0.05 | 58 | 1016.3 |
| 20260504004059 | 17 | 0 | 0.0 | 0.0 | 0.00 | 0.05 | 0.05 | 58 | 1016.3 |
| 20260504003558 | 17 | 0 | 0.0 | 0.0 | 0.00 | 0.05 | 0.05 | 58 | 1016.4 |
| 20260504003057 | 17 | 0 | 0.0 | 0.0 | 0.00 | 0.05 | 0.05 | 56 | 1016.4 |
| 20260504002558 | 18 | 0 | 0.0 | 3.2 | 0.00 | 0.05 | 0.05 | 54 | 1016.4 |
| 20260504002058 | 18 | 0 | 0.0 | 4.8 | 0.00 | 0.05 | 0.05 | 54 | 1016.4 |
| 20260504001556 | 18 | 0 | 0.0 | 4.8 | 0.00 | 0.05 | 0.05 | 53 | 1016.3 |
| 20260504001058 | 18 | 182 | 0.0 | 3.2 | 0.00 | 0.05 | 0.05 | 52 | 1016.4 |
| 20260504000557 | 19 | 0 | 0.0 | 1.6 | 0.00 | 0.05 | 0.05 | 50 | 1016.5 |
| 20260504000137 | 19 | 0 | 0.0 | 3.2 | 0.00 | 0.05 | 0.05 | 49 | 1016.5 |
| 20260503235558 | 19 | 0 | 0.0 | 3.2 | 0.00 | 0.05 | 0.05 | 48 | 1016.5 |